Time,TemperatureF,DewpointF,PressureIn,WindDirection,WindDirectionDegrees,WindSpeedMPH,WindSpeedGustMPH,Humidity,HourlyPrecipIn,Conditions,Clouds,dailyrainin,SoftwareType,DateUTC
2013-09-02 00:01:00,68.2,67.8,29.79,SE,135,0.0,-999.0,98,-99.99,,,-99.99,MetarLogicWeatherSta,2013-09-02 04:01:00,
2013-09-02 00:06:00,68.2,67.7,29.79,SSE,157,0.0,-999.0,98,-99.99,,,-99.99,MetarLogicWeatherSta,2013-09-02 04:06:00,
2013-09-02 00:11:00,68.2,67.9,29.79,ESE,112,3.0,-999.0,99,-99.99,,,-99.99,MetarLogicWeatherSta,2013-09-02 04:11:00,
2013-09-02 00:16:00,68.1,67.5,29.79,SE,135,1.0,-999.0,98,-99.99,,,-99.99,MetarLogicWeatherSta,2013-09-02 04:16:00,
2013-09-02 00:21:00,68.0,67.4,29.79,SSE,157,0.0,-999.0,98,-99.99,,,-99.99,MetarLogicWeatherSta,2013-09-02 04:21:00,
2013-09-02 00:26:00,68.0,67.3,29.79,SSE,157,0.0,-999.0,97,-99.99,,,-99.99,MetarLogicWeatherSta,2013-09-02 04:26:00,
2013-09-02 00:31:00,67.6,67.0,29.79,SE,135,1.0,-999.0,98,-99.99,,,-99.99,MetarLogicWeatherSta,2013-09-02 04:31:00,
2013-09-02 00:36:00,67.8,67.2,29.79,SE,135,0.0,-999.0,98,-99.99,,,-99.99,MetarLogicWeatherSta,2013-09-02 04:36:00,
2013-09-02 00:41:00,67.8,67.3,29.79,SSE,157,0.0,-999.0,98,-99.99,,,-99.99,MetarLogicWeatherSta,2013-09-02 04:41:00,
2013-09-02 00:46:00,67.7,67.2,29.79,SE,135,1.0,-999.0,98,-99.99,,,-99.99,MetarLogicWeatherSta,2013-09-02 04:46:00,
2013-09-02 00:51:00,67.7,67.2,29.78,SE,135,1.0,-999.0,98,-99.99,,,-99.99,MetarLogicWeatherSta,2013-09-02 04:51:00,
2013-09-02 00:56:00,67.6,67.2,29.78,SE,135,1.0,-999.0,98,-99.99,,,-99.99,MetarLogicWeatherSta,2013-09-02 04:56:00,
2013-09-02 01:01:00,67.7,67.4,29.79,SSE,157,0.0,-999.0,98,-99.99,,,-99.99,MetarLogicWeatherSta,2013-09-02 05:01:00,
2013-09-02 01:06:00,67.7,67.3,29.79,SSE,157,0.0,-999.0,98,-99.99,,,-99.99,MetarLogicWeatherSta,2013-09-02 05:06:00,
2013-09-02 01:11:00,67.7,67.3,29.79,SSE,157,0.0,-999.0,98,-99.99,,,-99.99,MetarLogicWeatherSta,2013-09-02 05:11:00,
2013-09-02 01:16:00,67.6,67.2,29.79,SSE,157,0.0,-999.0,98,-99.99,,,-99.99,MetarLogicWeatherSta,2013-09-02 05:16:00,
2013-09-02 01:21:00,67.8,67.4,29.79,SE,135,0.0,-999.0,98,-99.99,,,-99.99,MetarLogicWeatherSta,2013-09-02 05:21:00,
2013-09-02 01:26:00,67.8,67.4,29.78,SSE,157,0.0,-999.0,98,-99.99,,,-99.99,MetarLogicWeatherSta,2013-09-02 05:26:00,
2013-09-02 01:31:00,67.9,67.5,29.78,SE,135,0.0,-999.0,98,-99.99,,,-99.99,MetarLogicWeatherSta,2013-09-02 05:31:00,
2013-09-02 01:36:00,67.8,67.5,29.78,SSE,157,0.0,-999.0,98,-99.99,,,-99.99,MetarLogicWeatherSta,2013-09-02 05:36:00,
2013-09-02 01:41:00,67.8,67.5,29.78,SSE,157,0.0,-999.0,99,-99.99,,,-99.99,MetarLogicWeatherSta,2013-09-02 05:41:00,
2013-09-02 01:46:00,67.8,67.3,29.78,SSE,157,0.0,-999.0,98,-99.99,,,-99.99,MetarLogicWeatherSta,2013-09-02 05:46:00,
2013-09-02 01:51:00,67.8,67.4,29.78,SSE,157,0.0,-999.0,98,-99.99,,,-99.99,MetarLogicWeatherSta,2013-09-02 05:51:00,
2013-09-02 01:56:00,67.7,67.4,29.77,SSE,157,0.0,-999.0,99,-99.99,,,-99.99,MetarLogicWeatherSta,2013-09-02 05:56:00,
2013-09-02 02:01:00,67.6,67.2,29.77,SSE,157,0.0,-999.0,98,-99.99,,,-99.99,MetarLogicWeatherSta,2013-09-02 06:01:00,
2013-09-02 02:06:00,67.7,67.3,29.76,SSE,157,0.0,-999.0,98,-99.99,,,-99.99,MetarLogicWeatherSta,2013-09-02 06:06:00,
2013-09-02 02:11:00,67.8,67.4,29.76,SSE,157,0.0,-999.0,98,-99.99,,,-99.99,MetarLogicWeatherSta,2013-09-02 06:11:00,
2013-09-02 02:16:00,67.7,67.4,29.77,SSE,157,0.0,-999.0,99,-99.99,,,-99.99,MetarLogicWeatherSta,2013-09-02 06:16:00,
2013-09-02 02:21:00,67.8,67.6,29.76,SE,135,0.0,-999.0,99,-99.99,,,-99.99,MetarLogicWeatherSta,2013-09-02 06:21:00,
2013-09-02 02:26:00,67.8,67.5,29.76,SSE,157,0.0,-999.0,99,-99.99,,,-99.99,MetarLogicWeatherSta,2013-09-02 06:26:00,
2013-09-02 02:31:00,67.5,67.2,29.76,SSE,157,0.0,-999.0,99,-99.99,,,-99.99,MetarLogicWeatherSta,2013-09-02 06:31:00,
2013-09-02 02:36:00,67.7,67.4,29.75,SSE,157,0.0,-999.0,99,-99.99,,,-99.99,MetarLogicWeatherSta,2013-09-02 06:36:00,
2013-09-02 02:41:00,67.4,67.1,29.76,SE,135,0.0,-999.0,98,-99.99,,,-99.99,MetarLogicWeatherSta,2013-09-02 06:41:00,
2013-09-02 02:46:00,67.7,67.3,29.75,SSE,157,0.0,-999.0,98,-99.99,,,-99.99,MetarLogicWeatherSta,2013-09-02 06:46:00,
2013-09-02 02:51:00,67.6,67.2,29.77,South,180,0.0,-999.0,98,-99.99,,,-99.99,MetarLogicWeatherSta,2013-09-02 06:51:00,
2013-09-02 02:56:00,67.4,67.1,29.77,SSE,157,0.0,-999.0,98,-99.99,,,-99.99,MetarLogicWeatherSta,2013-09-02 06:56:00,
2013-09-02 03:01:00,67.4,67.2,29.77,SSE,157,0.0,-999.0,99,-99.99,,,-99.99,MetarLogicWeatherSta,2013-09-02 07:01:00,
2013-09-02 03:06:00,67.4,67.0,29.76,South,180,0.0,-999.0,98,-99.99,,,-99.99,MetarLogicWeatherSta,2013-09-02 07:06:00,
2013-09-02 03:11:00,66.9,66.5,29.76,SE,135,1.0,-999.0,98,-99.99,,,-99.99,MetarLogicWeatherSta,2013-09-02 07:11:00,
2013-09-02 03:16:00,66.9,66.6,29.76,SSE,157,0.0,-999.0,98,-99.99,,,-99.99,MetarLogicWeatherSta,2013-09-02 07:16:00,
2013-09-02 03:21:00,66.7,66.4,29.76,SSE,157,0.0,-999.0,99,-99.99,,,-99.99,MetarLogicWeatherSta,2013-09-02 07:21:00,
2013-09-02 03:26:00,66.6,66.4,29.76,South,180,0.0,-999.0,99,-99.99,,,-99.99,MetarLogicWeatherSta,2013-09-02 07:26:00,
2013-09-02 03:31:00,66.7,66.4,29.76,South,177,0.0,0.0,98,-99.99,,,-99.99,MetarLogicWeatherSta,2013-09-02 07:31:00,
2013-09-02 03:36:00,66.5,66.1,29.76,SSE,157,0.0,-999.0,98,-99.99,,,-99.99,MetarLogicWeatherSta,2013-09-02 07:36:00,
2013-09-02 03:41:00,66.5,66.2,29.75,SSE,157,0.0,-999.0,98,-99.99,,,-99.99,MetarLogicWeatherSta,2013-09-02 07:41:00,
2013-09-02 03:46:00,66.5,66.2,29.75,SSE,157,0.0,-999.0,98,-99.99,,,-99.99,MetarLogicWeatherSta,2013-09-02 07:46:00,
2013-09-02 03:51:00,66.5,66.2,29.75,South,180,0.0,-999.0,98,-99.99,,,-99.99,MetarLogicWeatherSta,2013-09-02 07:51:00,
2013-09-02 03:56:00,66.3,65.9,29.75,South,180,0.0,-999.0,98,-99.99,,,-99.99,MetarLogicWeatherSta,2013-09-02 07:56:00,
2013-09-02 04:01:00,66.2,65.9,29.75,SSE,157,0.0,-999.0,98,-99.99,,,-99.99,MetarLogicWeatherSta,2013-09-02 08:01:00,
2013-09-02 04:06:00,66.0,65.6,29.75,SSE,157,0.0,-999.0,98,-99.99,,,-99.99,MetarLogicWeatherSta,2013-09-02 08:06:00,
2013-09-02 04:11:00,66.2,66.1,29.75,SSE,157,0.0,-999.0,99,-99.99,,,-99.99,MetarLogicWeatherSta,2013-09-02 08:11:00,
2013-09-02 04:16:00,66.2,66.1,29.76,SSE,157,0.0,-999.0,99,-99.99,,,-99.99,MetarLogicWeatherSta,2013-09-02 08:16:00,
2013-09-02 04:21:00,66.2,66.0,29.75,South,180,0.0,-999.0,99,-99.99,,,-99.99,MetarLogicWeatherSta,2013-09-02 08:21:00,
2013-09-02 04:26:00,66.1,65.8,29.75,SSE,157,0.0,-999.0,98,-99.99,,,-99.99,MetarLogicWeatherSta,2013-09-02 08:26:00,
2013-09-02 04:31:00,66.0,65.8,29.75,SSE,157,0.0,-999.0,99,-99.99,,,-99.99,MetarLogicWeatherSta,2013-09-02 08:31:00,
2013-09-02 04:36:00,65.9,65.7,29.75,South,180,0.0,-999.0,99,-99.99,,,-99.99,MetarLogicWeatherSta,2013-09-02 08:36:00,
2013-09-02 04:41:00,65.9,65.7,29.75,South,180,0.0,-999.0,99,-99.99,,,-99.99,MetarLogicWeatherSta,2013-09-02 08:41:00,
2013-09-02 04:46:00,66.0,65.7,29.75,South,184,0.0,0.0,99,-99.99,,,-99.99,MetarLogicWeatherSta,2013-09-02 08:46:00,
2013-09-02 04:51:00,66.0,65.9,29.75,South,180,0.0,-999.0,99,-99.99,,,-99.99,MetarLogicWeatherSta,2013-09-02 08:51:00,
2013-09-02 04:56:00,66.1,65.9,29.75,SSE,157,0.0,-999.0,99,-99.99,,,-99.99,MetarLogicWeatherSta,2013-09-02 08:56:00,
2013-09-02 05:01:00,66.1,65.9,29.75,SSE,157,0.0,-999.0,99,-99.99,,,-99.99,MetarLogicWeatherSta,2013-09-02 09:01:00,
2013-09-02 05:06:00,66.1,65.9,29.75,SSE,157,0.0,-999.0,99,-99.99,,,-99.99,MetarLogicWeatherSta,2013-09-02 09:06:00,
2013-09-02 05:11:00,66.3,66.0,29.75,South,180,0.0,-999.0,99,-99.99,,,-99.99,MetarLogicWeatherSta,2013-09-02 09:11:00,
2013-09-02 05:16:00,66.1,65.9,29.75,SSE,157,0.0,-999.0,99,-99.99,,,-99.99,MetarLogicWeatherSta,2013-09-02 09:16:00,
2013-09-02 05:21:00,66.0,65.9,29.75,SSE,157,0.0,-999.0,99,-99.99,,,-99.99,MetarLogicWeatherSta,2013-09-02 09:21:00,
2013-09-02 05:26:00,66.3,66.1,29.75,SE,135,0.0,-999.0,99,-99.99,,,-99.99,MetarLogicWeatherSta,2013-09-02 09:26:00,
2013-09-02 05:31:00,66.3,66.1,29.75,South,180,0.0,-999.0,99,-99.99,,,-99.99,MetarLogicWeatherSta,2013-09-02 09:31:00,
2013-09-02 05:36:00,66.0,65.9,29.75,SSE,157,0.0,-999.0,99,-99.99,,,-99.99,MetarLogicWeatherSta,2013-09-02 09:36:00,
2013-09-02 05:41:00,66.1,65.9,29.75,SSE,157,0.0,-999.0,99,-99.99,,,-99.99,MetarLogicWeatherSta,2013-09-02 09:41:00,
2013-09-02 05:46:00,66.0,65.8,29.75,SSE,157,0.0,-999.0,99,-99.99,,,-99.99,MetarLogicWeatherSta,2013-09-02 09:46:00,
2013-09-02 05:51:00,66.1,66.0,29.75,SSE,157,0.0,-999.0,99,-99.99,,,-99.99,MetarLogicWeatherSta,2013-09-02 09:51:00,
2013-09-02 05:56:00,66.1,65.9,29.75,SSE,157,0.0,-999.0,99,-99.99,,,-99.99,MetarLogicWeatherSta,2013-09-02 09:56:00,
2013-09-02 06:01:00,65.9,65.7,29.75,SSE,157,0.0,-999.0,99,-99.99,,,-99.99,MetarLogicWeatherSta,2013-09-02 10:01:00,
2013-09-02 06:06:00,65.9,65.7,29.75,SSE,157,0.0,-999.0,99,-99.99,,,-99.99,MetarLogicWeatherSta,2013-09-02 10:06:00,
2013-09-02 06:11:00,65.9,65.8,29.75,SSE,157,0.0,-999.0,99,-99.99,,,-99.99,MetarLogicWeatherSta,2013-09-02 10:11:00,
2013-09-02 06:16:00,65.8,65.6,29.75,SSE,157,0.0,-999.0,99,-99.99,,,-99.99,MetarLogicWeatherSta,2013-09-02 10:16:00,
2013-09-02 06:21:00,65.6,65.4,29.75,SE,135,0.0,-999.0,99,-99.99,,,-99.99,MetarLogicWeatherSta,2013-09-02 10:21:00,
2013-09-02 06:26:00,65.7,65.6,29.75,SE,135,0.0,-999.0,99,-99.99,,,-99.99,MetarLogicWeatherSta,2013-09-02 10:26:00,
2013-09-02 06:31:00,65.6,65.4,29.75,SSE,157,0.0,-999.0,99,-99.99,,,-99.99,MetarLogicWeatherSta,2013-09-02 10:31:00,
2013-09-02 06:36:00,65.6,65.3,29.75,SSE,157,0.0,-999.0,99,-99.99,,,-99.99,MetarLogicWeatherSta,2013-09-02 10:36:00,
2013-09-02 06:41:00,65.4,65.1,29.75,SSE,157,0.0,-999.0,99,-99.99,,,-99.99,MetarLogicWeatherSta,2013-09-02 10:41:00,
2013-09-02 06:46:00,65.0,64.8,29.75,South,180,0.0,-999.0,99,-99.99,,,-99.99,MetarLogicWeatherSta,2013-09-02 10:46:00,
2013-09-02 06:51:00,65.2,65.2,29.75,South,180,0.0,0.0,99,-99.99,,,-99.99,MetarLogicWeatherSta,2013-09-02 10:51:00,
2013-09-02 06:56:00,65.2,65.1,29.75,SSE,157,0.0,-999.0,99,-99.99,,,-99.99,MetarLogicWeatherSta,2013-09-02 10:56:00,
2013-09-02 07:01:00,65.1,65.0,29.75,SSE,157,0.0,-999.0,99,-99.99,,,-99.99,MetarLogicWeatherSta,2013-09-02 11:01:00,
2013-09-02 07:06:00,65.1,65.1,29.75,SSE,157,0.0,-999.0,99,-99.99,,,-99.99,MetarLogicWeatherSta,2013-09-02 11:06:00,
2013-09-02 07:11:00,65.3,65.3,29.75,SSE,157,0.0,-999.0,99,-99.99,,,-99.99,MetarLogicWeatherSta,2013-09-02 11:11:00,
2013-09-02 07:16:00,65.1,65.0,29.75,SSE,157,0.0,-999.0,99,-99.99,,,-99.99,MetarLogicWeatherSta,2013-09-02 11:16:00,
2013-09-02 07:21:00,65.1,65.0,29.75,SSE,157,0.0,-999.0,99,-99.99,,,-99.99,MetarLogicWeatherSta,2013-09-02 11:21:00,
2013-09-02 07:26:00,65.2,65.0,29.75,SSE,157,0.0,-999.0,99,-99.99,,,-99.99,MetarLogicWeatherSta,2013-09-02 11:26:00,
2013-09-02 07:31:00,65.4,65.3,29.75,SSE,157,0.0,-999.0,99,-99.99,,,-99.99,MetarLogicWeatherSta,2013-09-02 11:31:00,
2013-09-02 07:36:00,65.2,65.0,29.75,South,180,0.0,-999.0,99,-99.99,,,-99.99,MetarLogicWeatherSta,2013-09-02 11:36:00,
2013-09-02 07:41:00,64.8,64.6,29.75,SSE,157,0.0,-999.0,99,-99.99,,,-99.99,MetarLogicWeatherSta,2013-09-02 11:41:00,
2013-09-02 07:46:00,65.0,64.9,29.75,SSE,157,0.0,-999.0,99,-99.99,,,-99.99,MetarLogicWeatherSta,2013-09-02 11:46:00,
2013-09-02 07:51:00,65.3,65.2,29.75,SSE,157,0.0,-999.0,99,-99.99,,,-99.99,MetarLogicWeatherSta,2013-09-02 11:51:00,
2013-09-02 07:56:00,65.3,65.3,29.75,SSE,157,0.0,-999.0,99,-99.99,,,-99.99,MetarLogicWeatherSta,2013-09-02 11:56:00,
2013-09-02 08:01:00,65.7,65.7,29.75,SE,135,0.0,-999.0,99,-99.99,,,-99.99,MetarLogicWeatherSta,2013-09-02 12:01:00,
2013-09-02 08:06:00,66.0,-99.9,29.75,SSE,157,0.0,-999.0,-999,-99.99,,,-99.99,MetarLogicWeatherSta,2013-09-02 12:06:00,
2013-09-02 08:11:00,66.6,-99.9,29.75,South,180,0.0,-999.0,-999,-99.99,,,-99.99,MetarLogicWeatherSta,2013-09-02 12:11:00,
2013-09-02 08:16:00,66.9,-99.9,29.75,SE,135,0.0,-999.0,-999,-99.99,,,-99.99,MetarLogicWeatherSta,2013-09-02 12:16:00,
2013-09-02 08:21:00,67.3,-99.9,29.75,SSE,157,0.0,-999.0,-999,-99.99,,,-99.99,MetarLogicWeatherSta,2013-09-02 12:21:00,
2013-09-02 08:26:00,68.0,-99.9,29.75,South,180,0.0,-999.0,-999,-99.99,,,-99.99,MetarLogicWeatherSta,2013-09-02 12:26:00,
2013-09-02 08:31:00,68.3,-99.9,29.75,SSE,157,0.0,-999.0,-999,-99.99,,,-99.99,MetarLogicWeatherSta,2013-09-02 12:31:00,
2013-09-02 08:36:00,69.0,-99.9,29.75,SE,135,3.0,-999.0,-999,-99.99,,,-99.99,MetarLogicWeatherSta,2013-09-02 12:36:00,
2013-09-02 08:41:00,69.7,-99.9,29.74,SE,135,0.0,-999.0,-999,-99.99,,,-99.99,MetarLogicWeatherSta,2013-09-02 12:41:00,
2013-09-02 08:46:00,70.5,-99.9,29.74,SSE,157,0.0,-999.0,-999,-99.99,,,-99.99,MetarLogicWeatherSta,2013-09-02 12:46:00,
2013-09-02 08:51:00,71.3,-99.9,29.74,ENE,67,3.0,-999.0,-999,-99.99,,,-99.99,MetarLogicWeatherSta,2013-09-02 12:51:00,
2013-09-02 08:56:00,71.8,-99.9,29.73,SSE,157,0.0,-999.0,-999,-99.99,,,-99.99,MetarLogicWeatherSta,2013-09-02 12:56:00,
2013-09-02 09:01:00,72.6,72.3,29.73,East,90,0.0,-999.0,99,-99.99,,,-99.99,MetarLogicWeatherSta,2013-09-02 13:01:00,
2013-09-02 09:06:00,73.3,72.4,29.74,SE,135,0.0,-999.0,96,-99.99,,,-99.99,MetarLogicWeatherSta,2013-09-02 13:06:00,
2013-09-02 09:11:00,74.0,73.3,29.74,East,90,4.0,-999.0,97,-99.99,,,-99.99,MetarLogicWeatherSta,2013-09-02 13:11:00,
2013-09-02 09:16:00,74.6,73.7,29.74,SSE,157,0.0,-999.0,97,-99.99,,,-99.99,MetarLogicWeatherSta,2013-09-02 13:16:00,
2013-09-02 09:21:00,74.9,73.2,29.73,SSE,157,1.0,-999.0,94,-99.99,,,-99.99,MetarLogicWeatherSta,2013-09-02 13:21:00,
2013-09-02 09:26:00,74.9,73.1,29.74,South,180,0.0,-999.0,94,-99.99,,,-99.99,MetarLogicWeatherSta,2013-09-02 13:26:00,
2013-09-02 09:31:00,75.1,73.1,29.75,South,180,0.0,-999.0,93,-99.99,,,-99.99,MetarLogicWeatherSta,2013-09-02 13:31:00,
2013-09-02 09:36:00,75.4,72.9,29.75,SSE,157,0.0,-999.0,91,-99.99,,,-99.99,MetarLogicWeatherSta,2013-09-02 13:36:00,
2013-09-02 09:41:00,75.7,73.2,29.75,South,180,0.0,-999.0,91,-99.99,,,-99.99,MetarLogicWeatherSta,2013-09-02 13:41:00,
2013-09-02 09:46:00,75.8,73.3,29.75,South,180,0.0,-999.0,91,-99.99,,,-99.99,MetarLogicWeatherSta,2013-09-02 13:46:00,
2013-09-02 09:51:00,75.4,72.4,29.75,South,180,0.0,-999.0,90,-99.99,,,-99.99,MetarLogicWeatherSta,2013-09-02 13:51:00,
2013-09-02 09:56:00,75.4,72.3,29.75,South,180,0.0,-999.0,90,-99.99,,,-99.99,MetarLogicWeatherSta,2013-09-02 13:56:00,
2013-09-02 10:01:00,75.5,72.4,29.75,South,180,0.0,-999.0,90,-99.99,,,-99.99,MetarLogicWeatherSta,2013-09-02 14:01:00,
2013-09-02 10:06:00,75.9,72.4,29.75,South,180,1.0,-999.0,88,-99.99,,,-99.99,MetarLogicWeatherSta,2013-09-02 14:06:00,
2013-09-02 10:11:00,75.8,71.9,29.75,South,180,0.0,-999.0,87,-99.99,,,-99.99,MetarLogicWeatherSta,2013-09-02 14:11:00,
2013-09-02 10:16:00,75.3,71.4,29.75,SSE,157,0.0,-999.0,87,-99.99,,,-99.99,MetarLogicWeatherSta,2013-09-02 14:16:00,
2013-09-02 10:21:00,74.9,71.0,29.75,South,180,0.0,-999.0,87,-99.99,,,-99.99,MetarLogicWeatherSta,2013-09-02 14:21:00,
2013-09-02 10:26:00,74.5,70.8,29.75,SSE,157,0.0,-999.0,88,-99.99,,,-99.99,MetarLogicWeatherSta,2013-09-02 14:26:00,
2013-09-02 10:31:00,74.2,70.9,29.75,South,180,0.0,-999.0,89,-99.99,,,-99.99,MetarLogicWeatherSta,2013-09-02 14:31:00,
2013-09-02 10:36:00,74.5,71.3,29.75,South,180,0.0,-999.0,89,-99.99,,,-99.99,MetarLogicWeatherSta,2013-09-02 14:36:00,
2013-09-02 10:41:00,74.4,71.2,29.75,SSE,157,0.0,-999.0,89,-99.99,,,-99.99,MetarLogicWeatherSta,2013-09-02 14:41:00,
2013-09-02 10:46:00,74.4,71.2,29.75,South,180,0.0,-999.0,89,-99.99,,,-99.99,MetarLogicWeatherSta,2013-09-02 14:46:00,
2013-09-02 10:51:00,74.6,71.6,29.75,SSW,202,0.0,-999.0,90,-99.99,,,-99.99,MetarLogicWeatherSta,2013-09-02 14:51:00,
2013-09-02 10:56:00,74.7,71.5,29.75,South,180,0.0,-999.0,89,-99.99,,,-99.99,MetarLogicWeatherSta,2013-09-02 14:56:00,
2013-09-02 11:01:00,74.8,71.3,29.75,SSE,157,0.0,-999.0,88,-99.99,,,-99.99,MetarLogicWeatherSta,2013-09-02 15:01:00,
2013-09-02 11:06:00,74.9,71.4,29.74,SSE,157,0.0,-999.0,88,-99.99,,,-99.99,MetarLogicWeatherSta,2013-09-02 15:06:00,
2013-09-02 11:11:00,75.0,71.4,29.74,SSE,157,0.0,-999.0,88,-99.99,,,-99.99,MetarLogicWeatherSta,2013-09-02 15:11:00,
2013-09-02 11:16:00,74.8,71.3,29.74,South,180,0.0,-999.0,88,-99.99,,,-99.99,MetarLogicWeatherSta,2013-09-02 15:16:00,
2013-09-02 11:21:00,75.4,72.1,29.73,South,180,1.0,-999.0,89,-99.99,,,-99.99,MetarLogicWeatherSta,2013-09-02 15:21:00,
2013-09-02 11:26:00,76.2,72.5,29.73,South,180,0.0,-999.0,88,-99.99,,,-99.99,MetarLogicWeatherSta,2013-09-02 15:26:00,
2013-09-02 11:31:00,77.1,72.4,29.73,South,180,1.0,-999.0,85,-99.99,,,-99.99,MetarLogicWeatherSta,2013-09-02 15:31:00,
2013-09-02 11:36:00,78.0,73.0,29.73,South,180,1.0,-999.0,84,-99.99,,,-99.99,MetarLogicWeatherSta,2013-09-02 15:36:00,
2013-09-02 11:41:00,78.3,72.3,29.73,South,180,0.0,-999.0,81,-99.99,,,-99.99,MetarLogicWeatherSta,2013-09-02 15:41:00,
2013-09-02 11:46:00,78.3,72.1,29.73,South,180,0.0,-999.0,80,-99.99,,,-99.99,MetarLogicWeatherSta,2013-09-02 15:46:00,
2013-09-02 11:51:00,77.8,71.7,29.73,SSE,157,0.0,-999.0,81,-99.99,,,-99.99,MetarLogicWeatherSta,2013-09-02 15:51:00,
2013-09-02 11:56:00,77.6,71.8,29.73,South,180,0.0,-999.0,82,-99.99,,,-99.99,MetarLogicWeatherSta,2013-09-02 15:56:00,
2013-09-02 12:01:00,77.3,71.8,29.73,SSE,157,0.0,-999.0,82,-99.99,,,-99.99,MetarLogicWeatherSta,2013-09-02 16:01:00,
2013-09-02 12:06:00,77.2,71.6,29.73,South,180,0.0,-999.0,82,-99.99,,,-99.99,MetarLogicWeatherSta,2013-09-02 16:06:00,
2013-09-02 12:11:00,76.8,71.2,29.73,South,180,0.0,-999.0,82,-99.99,,,-99.99,MetarLogicWeatherSta,2013-09-02 16:11:00,
2013-09-02 12:16:00,77.1,71.6,29.73,SSE,157,0.0,-999.0,82,-99.99,,,-99.99,MetarLogicWeatherSta,2013-09-02 16:16:00,
2013-09-02 12:21:00,78.0,72.8,29.72,South,180,0.0,-999.0,83,-99.99,,,-99.99,MetarLogicWeatherSta,2013-09-02 16:21:00,
2013-09-02 12:26:00,78.8,72.9,29.72,SSE,157,0.0,-999.0,81,-99.99,,,-99.99,MetarLogicWeatherSta,2013-09-02 16:26:00,
2013-09-02 12:31:00,79.9,72.6,29.72,ENE,67,1.0,-999.0,78,-99.99,,,-99.99,MetarLogicWeatherSta,2013-09-02 16:31:00,
2013-09-02 12:36:00,79.8,72.2,29.72,South,180,0.0,-999.0,77,-99.99,,,-99.99,MetarLogicWeatherSta,2013-09-02 16:36:00,
2013-09-02 12:41:00,79.9,72.2,29.72,SE,135,0.0,-999.0,77,-99.99,,,-99.99,MetarLogicWeatherSta,2013-09-02 16:41:00,
2013-09-02 12:46:00,80.1,72.4,29.72,South,180,0.0,-999.0,77,-99.99,,,-99.99,MetarLogicWeatherSta,2013-09-02 16:46:00,
2013-09-02 12:51:00,80.1,72.7,29.72,SSE,157,0.0,-999.0,77,-99.99,,,-99.99,MetarLogicWeatherSta,2013-09-02 16:51:00,
2013-09-02 12:56:00,80.1,72.3,29.71,SSE,157,0.0,-999.0,76,-99.99,,,-99.99,MetarLogicWeatherSta,2013-09-02 16:56:00,
2013-09-02 13:01:00,79.9,71.9,29.71,South,180,0.0,-999.0,76,-99.99,,,-99.99,MetarLogicWeatherSta,2013-09-02 17:01:00,
2013-09-02 13:06:00,80.1,72.4,29.71,North,0,3.0,-999.0,77,-99.99,,,-99.99,MetarLogicWeatherSta,2013-09-02 17:06:00,
2013-09-02 13:11:00,80.1,71.8,29.71,SSE,157,0.0,-999.0,75,-99.99,,,-99.99,MetarLogicWeatherSta,2013-09-02 17:11:00,
2013-09-02 13:16:00,80.1,71.9,29.71,South,180,0.0,-999.0,75,-99.99,,,-99.99,MetarLogicWeatherSta,2013-09-02 17:16:00,
2013-09-02 13:21:00,80.1,72.4,29.71,South,180,0.0,-999.0,76,-99.99,,,-99.99,MetarLogicWeatherSta,2013-09-02 17:21:00,
2013-09-02 13:26:00,80.1,71.9,29.71,SSE,157,0.0,-999.0,75,-99.99,,,-99.99,MetarLogicWeatherSta,2013-09-02 17:26:00,
2013-09-02 13:31:00,79.8,72.0,29.71,South,180,0.0,-999.0,76,-99.99,,,-99.99,MetarLogicWeatherSta,2013-09-02 17:31:00,
2013-09-02 13:36:00,79.9,72.0,29.71,SSE,157,0.0,-999.0,76,-99.99,,,-99.99,MetarLogicWeatherSta,2013-09-02 17:36:00,
2013-09-02 13:41:00,80.1,72.8,29.71,South,180,0.0,-999.0,78,-99.99,,,-99.99,MetarLogicWeatherSta,2013-09-02 17:41:00,
2013-09-02 13:46:00,80.6,72.6,29.71,South,180,0.0,-999.0,76,-99.99,,,-99.99,MetarLogicWeatherSta,2013-09-02 17:46:00,
2013-09-02 13:51:00,80.3,72.5,29.72,SSE,157,0.0,-999.0,76,-99.99,,,-99.99,MetarLogicWeatherSta,2013-09-02 17:51:00,
2013-09-02 13:56:00,79.5,71.9,29.71,SSW,202,1.0,-999.0,77,-99.99,,,-99.99,MetarLogicWeatherSta,2013-09-02 17:56:00,
2013-09-02 14:01:00,78.9,71.5,29.71,South,180,0.0,-999.0,77,-99.99,,,-99.99,MetarLogicWeatherSta,2013-09-02 18:01:00,
2013-09-02 14:06:00,77.8,70.5,29.71,SSE,157,0.0,-999.0,78,-99.99,,,-99.99,MetarLogicWeatherSta,2013-09-02 18:06:00,
2013-09-02 14:11:00,76.8,70.2,29.69,SSE,157,0.0,-999.0,79,-99.99,,,-99.99,MetarLogicWeatherSta,2013-09-02 18:11:00,
2013-09-02 14:16:00,75.8,69.7,29.70,South,180,0.0,-999.0,81,-99.99,,,-99.99,MetarLogicWeatherSta,2013-09-02 18:16:00,
2013-09-02 14:21:00,75.0,69.6,29.71,SSE,157,0.0,-999.0,83,-99.99,,,-99.99,MetarLogicWeatherSta,2013-09-02 18:21:00,
2013-09-02 14:26:00,74.4,69.7,29.71,South,180,0.0,-999.0,85,-99.99,,,-99.99,MetarLogicWeatherSta,2013-09-02 18:26:00,
2013-09-02 14:31:00,74.1,69.6,29.71,South,180,0.0,-999.0,85,-99.99,,,-99.99,MetarLogicWeatherSta,2013-09-02 18:31:00,
2013-09-02 14:36:00,73.7,69.6,29.71,South,180,0.0,-999.0,86,-99.99,,,-99.99,MetarLogicWeatherSta,2013-09-02 18:36:00,
2013-09-02 14:41:00,74.0,70.2,29.71,South,180,0.0,-999.0,87,-99.99,,,-99.99,MetarLogicWeatherSta,2013-09-02 18:41:00,
2013-09-02 14:46:00,75.0,71.1,29.71,South,180,0.0,-999.0,87,-99.99,,,-99.99,MetarLogicWeatherSta,2013-09-02 18:46:00,
2013-09-02 14:51:00,75.8,71.9,29.71,South,180,0.0,-999.0,87,-99.99,,,-99.99,MetarLogicWeatherSta,2013-09-02 18:51:00,
2013-09-02 14:56:00,76.8,72.3,29.70,South,180,0.0,-999.0,85,-99.99,,,-99.99,MetarLogicWeatherSta,2013-09-02 18:56:00,
2013-09-02 15:01:00,77.7,72.1,29.70,South,180,0.0,-999.0,82,-99.99,,,-99.99,MetarLogicWeatherSta,2013-09-02 19:01:00,
2013-09-02 15:06:00,78.0,71.6,29.70,South,180,0.0,-999.0,80,-99.99,,,-99.99,MetarLogicWeatherSta,2013-09-02 19:06:00,
2013-09-02 15:11:00,77.3,70.5,29.69,South,180,0.0,-999.0,79,-99.99,,,-99.99,MetarLogicWeatherSta,2013-09-02 19:11:00,
2013-09-02 15:16:00,76.7,70.3,29.69,South,180,0.0,-999.0,80,-99.99,,,-99.99,MetarLogicWeatherSta,2013-09-02 19:16:00,
2013-09-02 15:21:00,76.6,70.6,29.70,South,180,0.0,-999.0,81,-99.99,,,-99.99,MetarLogicWeatherSta,2013-09-02 19:21:00,
2013-09-02 15:26:00,77.2,71.8,29.69,SSE,157,0.0,-999.0,83,-99.99,,,-99.99,MetarLogicWeatherSta,2013-09-02 19:26:00,
2013-09-02 15:31:00,78.0,72.3,29.69,South,180,1.0,-999.0,82,-99.99,,,-99.99,MetarLogicWeatherSta,2013-09-02 19:31:00,
2013-09-02 15:36:00,78.6,72.5,29.69,South,180,0.0,-999.0,81,-99.99,,,-99.99,MetarLogicWeatherSta,2013-09-02 19:36:00,
2013-09-02 15:41:00,78.7,71.5,29.69,South,180,0.0,-999.0,78,-99.99,,,-99.99,MetarLogicWeatherSta,2013-09-02 19:41:00,
2013-09-02 15:46:00,78.5,71.6,29.69,South,180,1.0,-999.0,79,-99.99,,,-99.99,MetarLogicWeatherSta,2013-09-02 19:46:00,
2013-09-02 15:51:00,78.3,71.2,29.69,NE,45,4.0,-999.0,78,-99.99,,,-99.99,MetarLogicWeatherSta,2013-09-02 19:51:00,
2013-09-02 15:56:00,78.2,71.4,29.69,South,180,0.0,-999.0,79,-99.99,,,-99.99,MetarLogicWeatherSta,2013-09-02 19:56:00,
2013-09-02 16:01:00,78.1,71.5,29.69,South,180,0.0,-999.0,79,-99.99,,,-99.99,MetarLogicWeatherSta,2013-09-02 20:01:00,
2013-09-02 16:06:00,78.1,71.3,29.69,SE,135,0.0,-999.0,79,-99.99,,,-99.99,MetarLogicWeatherSta,2013-09-02 20:06:00,
2013-09-02 16:11:00,78.1,71.6,29.69,South,180,0.0,-999.0,80,-99.99,,,-99.99,MetarLogicWeatherSta,2013-09-02 20:11:00,
2013-09-02 16:16:00,78.1,69.9,29.69,SSW,202,3.0,-999.0,75,-99.99,,,-99.99,MetarLogicWeatherSta,2013-09-02 20:16:00,
2013-09-02 16:21:00,77.8,69.2,29.69,South,180,0.0,-999.0,74,-99.99,,,-99.99,MetarLogicWeatherSta,2013-09-02 20:21:00,
2013-09-02 16:26:00,77.7,68.8,29.69,SSE,157,0.0,-999.0,73,-99.99,,,-99.99,MetarLogicWeatherSta,2013-09-02 20:26:00,
2013-09-02 16:31:00,77.2,68.8,29.69,South,180,0.0,-999.0,74,-99.99,,,-99.99,MetarLogicWeatherSta,2013-09-02 20:31:00,
2013-09-02 16:36:00,76.7,68.6,29.69,SSE,157,0.0,-999.0,75,-99.99,,,-99.99,MetarLogicWeatherSta,2013-09-02 20:36:00,
2013-09-02 16:41:00,76.5,68.6,29.69,SSE,157,0.0,-999.0,76,-99.99,,,-99.99,MetarLogicWeatherSta,2013-09-02 20:41:00,
2013-09-02 16:46:00,76.4,68.4,29.69,SSW,202,1.0,-999.0,75,-99.99,,,-99.99,MetarLogicWeatherSta,2013-09-02 20:46:00,
2013-09-02 16:51:00,76.1,68.1,29.69,SSE,157,0.0,-999.0,75,-99.99,,,-99.99,MetarLogicWeatherSta,2013-09-02 20:51:00,
2013-09-02 16:56:00,76.1,67.8,29.69,SSW,202,0.0,-999.0,75,-99.99,,,-99.99,MetarLogicWeatherSta,2013-09-02 20:56:00,
2013-09-02 17:01:00,75.9,67.6,29.69,South,180,0.0,-999.0,75,-99.99,,,-99.99,MetarLogicWeatherSta,2013-09-02 21:01:00,
2013-09-02 17:06:00,75.7,67.6,29.71,South,180,0.0,-999.0,75,-99.99,,,-99.99,MetarLogicWeatherSta,2013-09-02 21:06:00,
2013-09-02 17:11:00,75.4,67.6,29.70,South,180,0.0,-999.0,76,-99.99,,,-99.99,MetarLogicWeatherSta,2013-09-02 21:11:00,
2013-09-02 17:16:00,75.4,67.6,29.71,SE,135,0.0,-999.0,76,-99.99,,,-99.99,MetarLogicWeatherSta,2013-09-02 21:16:00,
2013-09-02 17:21:00,75.3,67.4,29.71,SSE,157,0.0,-999.0,76,-99.99,,,-99.99,MetarLogicWeatherSta,2013-09-02 21:21:00,
2013-09-02 17:26:00,74.8,67.5,29.71,South,180,0.0,-999.0,77,-99.99,,,-99.99,MetarLogicWeatherSta,2013-09-02 21:26:00,
2013-09-02 17:31:00,74.8,67.8,29.71,SW,225,1.0,-999.0,78,-99.99,,,-99.99,MetarLogicWeatherSta,2013-09-02 21:31:00,
2013-09-02 17:36:00,74.3,67.1,29.71,South,180,0.0,-999.0,77,-99.99,,,-99.99,MetarLogicWeatherSta,2013-09-02 21:36:00,
2013-09-02 17:41:00,73.6,66.9,29.71,WSW,247,1.0,-999.0,79,-99.99,,,-99.99,MetarLogicWeatherSta,2013-09-02 21:41:00,
2013-09-02 17:46:00,72.9,66.6,29.72,South,180,0.0,-999.0,80,-99.99,,,-99.99,MetarLogicWeatherSta,2013-09-02 21:46:00,
2013-09-02 17:51:00,72.1,66.3,29.72,South,180,0.0,-999.0,81,-99.99,,,-99.99,MetarLogicWeatherSta,2013-09-02 21:51:00,
2013-09-02 17:56:00,71.8,66.9,29.71,South,180,0.0,-999.0,84,-99.99,,,-99.99,MetarLogicWeatherSta,2013-09-02 21:56:00,
2013-09-02 18:01:00,71.1,66.7,29.72,South,180,0.0,-999.0,85,-99.99,,,-99.99,MetarLogicWeatherSta,2013-09-02 22:01:00,
2013-09-02 18:06:00,70.6,66.6,29.72,South,180,0.0,-999.0,87,-99.99,,,-99.99,MetarLogicWeatherSta,2013-09-02 22:06:00,
2013-09-02 18:11:00,70.1,66.3,29.72,SSE,157,0.0,-999.0,87,-99.99,,,-99.99,MetarLogicWeatherSta,2013-09-02 22:11:00,
2013-09-02 18:16:00,70.2,66.9,29.72,South,180,0.0,-999.0,89,-99.99,,,-99.99,MetarLogicWeatherSta,2013-09-02 22:16:00,
2013-09-02 18:21:00,69.9,66.6,29.73,South,180,0.0,-999.0,89,-99.99,,,-99.99,MetarLogicWeatherSta,2013-09-02 22:21:00,
2013-09-02 18:26:00,69.9,66.7,29.73,South,180,0.0,-999.0,89,-99.99,,,-99.99,MetarLogicWeatherSta,2013-09-02 22:26:00,
2013-09-02 18:31:00,69.6,66.5,29.73,South,180,0.0,-999.0,89,-99.99,,,-99.99,MetarLogicWeatherSta,2013-09-02 22:31:00,
2013-09-02 18:36:00,69.4,66.6,29.73,South,180,0.0,-999.0,90,-99.99,,,-99.99,MetarLogicWeatherSta,2013-09-02 22:36:00,
2013-09-02 18:41:00,69.3,66.5,29.73,South,180,0.0,-999.0,90,-99.99,,,-99.99,MetarLogicWeatherSta,2013-09-02 22:41:00,
2013-09-02 18:46:00,69.4,66.7,29.73,South,180,0.0,-999.0,90,-99.99,,,-99.99,MetarLogicWeatherSta,2013-09-02 22:46:00,
2013-09-02 18:51:00,69.2,66.6,29.73,SSE,157,0.0,-999.0,91,-99.99,,,-99.99,MetarLogicWeatherSta,2013-09-02 22:51:00,
2013-09-02 18:56:00,69.2,66.6,29.73,SSE,157,0.0,-999.0,91,-99.99,,,-99.99,MetarLogicWeatherSta,2013-09-02 22:56:00,
2013-09-02 19:01:00,69.2,66.7,29.72,SSE,157,0.0,-999.0,91,-99.99,,,-99.99,MetarLogicWeatherSta,2013-09-02 23:01:00,
2013-09-02 19:06:00,69.2,66.6,29.73,SSE,157,0.0,-999.0,91,-99.99,,,-99.99,MetarLogicWeatherSta,2013-09-02 23:06:00,
2013-09-02 19:11:00,69.2,66.5,29.73,SSE,157,0.0,-999.0,91,-99.99,,,-99.99,MetarLogicWeatherSta,2013-09-02 23:11:00,
2013-09-02 19:16:00,68.9,66.3,29.73,South,180,0.0,-999.0,91,-99.99,,,-99.99,MetarLogicWeatherSta,2013-09-02 23:16:00,
2013-09-02 19:21:00,68.8,66.4,29.73,WSW,247,3.0,-999.0,92,-99.99,,,-99.99,MetarLogicWeatherSta,2013-09-02 23:21:00,
2013-09-02 19:26:00,68.4,66.0,29.73,South,180,0.0,-999.0,91,-99.99,,,-99.99,MetarLogicWeatherSta,2013-09-02 23:26:00,
2013-09-02 19:31:00,68.0,65.2,29.73,South,180,1.0,-999.0,90,-99.99,,,-99.99,MetarLogicWeatherSta,2013-09-02 23:31:00,
2013-09-02 19:36:00,67.8,65.0,29.73,SW,225,3.0,-999.0,90,-99.99,,,-99.99,MetarLogicWeatherSta,2013-09-02 23:36:00,
2013-09-02 19:41:00,67.7,64.9,29.73,South,180,0.0,-999.0,90,-99.99,,,-99.99,MetarLogicWeatherSta,2013-09-02 23:41:00,
2013-09-02 19:46:00,67.4,64.5,29.73,SSW,202,0.0,-999.0,90,-99.99,,,-99.99,MetarLogicWeatherSta,2013-09-02 23:46:00,
2013-09-02 19:51:00,67.2,64.3,29.73,SSE,157,0.0,-999.0,90,-99.99,,,-99.99,MetarLogicWeatherSta,2013-09-02 23:51:00,
2013-09-02 19:56:00,67.1,64.3,29.73,SSE,157,0.0,-999.0,90,-99.99,,,-99.99,MetarLogicWeatherSta,2013-09-02 23:56:00,
2013-09-02 20:01:00,66.9,64.0,29.74,SSE,157,0.0,-999.0,90,-99.99,,,-99.99,MetarLogicWeatherSta,2013-09-03 00:01:00,
2013-09-02 20:06:00,66.9,64.0,29.74,SSE,157,0.0,-999.0,90,-99.99,,,-99.99,MetarLogicWeatherSta,2013-09-03 00:06:00,
2013-09-02 20:11:00,66.7,63.8,29.73,South,180,0.0,-999.0,90,-99.99,,,-99.99,MetarLogicWeatherSta,2013-09-03 00:11:00,
2013-09-02 20:16:00,66.6,63.8,29.74,South,180,1.0,-999.0,90,-99.99,,,-99.99,MetarLogicWeatherSta,2013-09-03 00:16:00,
2013-09-02 20:21:00,66.3,63.5,29.74,SSE,157,0.0,-999.0,90,-99.99,,,-99.99,MetarLogicWeatherSta,2013-09-03 00:21:00,
2013-09-02 20:26:00,65.9,63.0,29.75,SSE,157,0.0,-999.0,90,-99.99,,,-99.99,MetarLogicWeatherSta,2013-09-03 00:26:00,
2013-09-02 20:31:00,65.9,63.0,29.75,SSE,157,0.0,-999.0,90,-99.99,,,-99.99,MetarLogicWeatherSta,2013-09-03 00:31:00,
2013-09-02 20:36:00,65.8,63.1,29.75,South,180,0.0,-999.0,91,-99.99,,,-99.99,MetarLogicWeatherSta,2013-09-03 00:36:00,
2013-09-02 20:41:00,65.7,63.1,29.75,South,180,0.0,-999.0,91,-99.99,,,-99.99,MetarLogicWeatherSta,2013-09-03 00:41:00,
2013-09-02 20:46:00,65.2,62.6,29.75,South,180,0.0,-999.0,91,-99.99,,,-99.99,MetarLogicWeatherSta,2013-09-03 00:46:00,
2013-09-02 20:51:00,65.2,62.7,29.76,SSE,157,0.0,-999.0,91,-99.99,,,-99.99,MetarLogicWeatherSta,2013-09-03 00:51:00,
2013-09-02 20:56:00,65.3,62.6,29.76,West,270,3.0,-999.0,90,-99.99,,,-99.99,MetarLogicWeatherSta,2013-09-03 00:56:00,
2013-09-02 21:01:00,64.8,61.9,29.77,South,180,0.0,-999.0,90,-99.99,,,-99.99,MetarLogicWeatherSta,2013-09-03 01:01:00,
2013-09-02 21:06:00,64.6,61.7,29.78,South,180,0.0,-999.0,89,-99.99,,,-99.99,MetarLogicWeatherSta,2013-09-03 01:06:00,
2013-09-02 21:11:00,64.5,61.5,29.78,SSE,157,0.0,-999.0,89,-99.99,,,-99.99,MetarLogicWeatherSta,2013-09-03 01:11:00,
2013-09-02 21:16:00,64.2,61.0,29.78,South,180,0.0,-999.0,89,-99.99,,,-99.99,MetarLogicWeatherSta,2013-09-03 01:16:00,
2013-09-02 21:21:00,63.8,60.5,29.78,South,180,0.0,-999.0,88,-99.99,,,-99.99,MetarLogicWeatherSta,2013-09-03 01:21:00,
2013-09-02 21:26:00,63.4,60.0,29.78,South,180,0.0,-999.0,88,-99.99,,,-99.99,MetarLogicWeatherSta,2013-09-03 01:26:00,
2013-09-02 21:31:00,63.1,59.8,29.78,SSE,157,0.0,-999.0,88,-99.99,,,-99.99,MetarLogicWeatherSta,2013-09-03 01:31:00,
2013-09-02 21:36:00,63.0,59.6,29.78,SSE,157,0.0,-999.0,88,-99.99,,,-99.99,MetarLogicWeatherSta,2013-09-03 01:36:00,
2013-09-02 21:41:00,62.7,59.3,29.79,SSE,157,0.0,-999.0,88,-99.99,,,-99.99,MetarLogicWeatherSta,2013-09-03 01:41:00,
2013-09-02 21:46:00,62.4,59.1,29.79,SSE,157,0.0,-999.0,88,-99.99,,,-99.99,MetarLogicWeatherSta,2013-09-03 01:46:00,
2013-09-02 21:51:00,62.7,59.5,29.79,SSE,157,0.0,-999.0,89,-99.99,,,-99.99,MetarLogicWeatherSta,2013-09-03 01:51:00,
2013-09-02 21:56:00,62.7,59.4,29.79,SSE,157,0.0,-999.0,89,-99.99,,,-99.99,MetarLogicWeatherSta,2013-09-03 01:56:00,
2013-09-02 22:01:00,62.5,59.5,29.79,SSE,157,0.0,-999.0,89,-99.99,,,-99.99,MetarLogicWeatherSta,2013-09-03 02:01:00,
2013-09-02 22:06:00,62.3,59.2,29.79,South,180,0.0,-999.0,89,-99.99,,,-99.99,MetarLogicWeatherSta,2013-09-03 02:06:00,
2013-09-02 22:11:00,62.0,58.8,29.78,SSE,157,0.0,-999.0,88,-99.99,,,-99.99,MetarLogicWeatherSta,2013-09-03 02:11:00,
2013-09-02 22:16:00,61.6,58.3,29.79,South,180,0.0,-999.0,88,-99.99,,,-99.99,MetarLogicWeatherSta,2013-09-03 02:16:00,
2013-09-02 22:21:00,61.3,58.1,29.79,SSE,157,0.0,-999.0,89,-99.99,,,-99.99,MetarLogicWeatherSta,2013-09-03 02:21:00,
2013-09-02 22:26:00,61.2,58.0,29.80,South,180,0.0,-999.0,89,-99.99,,,-99.99,MetarLogicWeatherSta,2013-09-03 02:26:00,
2013-09-02 22:31:00,60.8,57.6,29.80,SSE,157,0.0,-999.0,89,-99.99,,,-99.99,MetarLogicWeatherSta,2013-09-03 02:31:00,
2013-09-02 22:36:00,60.7,57.5,29.80,SSE,157,0.0,-999.0,89,-99.99,,,-99.99,MetarLogicWeatherSta,2013-09-03 02:36:00,
2013-09-02 22:41:00,60.3,57.3,29.80,South,180,0.0,-999.0,89,-99.99,,,-99.99,MetarLogicWeatherSta,2013-09-03 02:41:00,
2013-09-02 22:46:00,60.3,57.5,29.79,South,180,0.0,-999.0,90,-99.99,,,-99.99,MetarLogicWeatherSta,2013-09-03 02:46:00,
2013-09-02 22:51:00,60.0,57.1,29.80,SSE,157,0.0,-999.0,90,-99.99,,,-99.99,MetarLogicWeatherSta,2013-09-03 02:51:00,
2013-09-02 22:56:00,60.0,57.2,29.80,SSE,157,0.0,-999.0,90,-99.99,,,-99.99,MetarLogicWeatherSta,2013-09-03 02:56:00,
2013-09-02 23:01:00,59.8,57.1,29.80,South,180,0.0,-999.0,90,-99.99,,,-99.99,MetarLogicWeatherSta,2013-09-03 03:01:00,
2013-09-02 23:06:00,59.4,56.7,29.80,SSE,157,0.0,-999.0,90,-99.99,,,-99.99,MetarLogicWeatherSta,2013-09-03 03:06:00,
2013-09-02 23:11:00,59.2,56.4,29.80,SSE,157,0.0,-999.0,90,-99.99,,,-99.99,MetarLogicWeatherSta,2013-09-03 03:11:00,
2013-09-02 23:16:00,59.3,56.6,29.80,SSE,157,0.0,-999.0,90,-99.99,,,-99.99,MetarLogicWeatherSta,2013-09-03 03:16:00,
2013-09-02 23:21:00,59.1,56.5,29.80,SSE,157,0.0,-999.0,91,-99.99,,,-99.99,MetarLogicWeatherSta,2013-09-03 03:21:00,
2013-09-02 23:26:00,58.8,56.1,29.81,SSE,157,0.0,-999.0,90,-99.99,,,-99.99,MetarLogicWeatherSta,2013-09-03 03:26:00,
2013-09-02 23:31:00,58.6,55.9,29.80,SSE,157,0.0,-999.0,90,-99.99,,,-99.99,MetarLogicWeatherSta,2013-09-03 03:31:00,
2013-09-02 23:36:00,58.5,55.9,29.81,SSE,157,0.0,-999.0,90,-99.99,,,-99.99,MetarLogicWeatherSta,2013-09-03 03:36:00,
2013-09-02 23:41:00,58.0,55.5,29.80,SSE,157,0.0,-999.0,91,-99.99,,,-99.99,MetarLogicWeatherSta,2013-09-03 03:41:00,
2013-09-02 23:46:00,57.8,55.5,29.80,SSE,157,0.0,-999.0,91,-99.99,,,-99.99,MetarLogicWeatherSta,2013-09-03 03:46:00,
2013-09-02 23:51:00,57.7,55.3,29.80,SSE,157,0.0,-999.0,91,-99.99,,,-99.99,MetarLogicWeatherSta,2013-09-03 03:51:00,
2013-09-02 23:56:00,57.7,55.3,29.80,SSE,157,0.0,-999.0,91,-99.99,,,-99.99,MetarLogicWeatherSta,2013-09-03 03:56:00,